Regional Weather Roundup
Issued by NWS

Home | Current Version | Previous Version | Graphics & Text | Print | Product List | Glossary On
Versions: 1 2 3 4 5 6 7 8 9 10 11 12 13 14 15 16 17 18 19 20 21 22 23 24 25 26 27 28 29 30 31 32 33 34 35 36 37 38 39 40 41 42 43 44 45 46 47 48 49 50
000
ASUS43 KDMX 300607
RWRIA

WEATHER ROUNDUP FOR IOWA
NATIONAL WEATHER SERVICE DES MOINES IA
100 AM CDT SAT MAY 30 2015

NOTE: "FAIR" INDICATES FEW OR NO CLOUDS BELOW 12,000 FEET WITH NO
SIGNIFICANT WEATHER AND/OR OBSTRUCTIONS TO VISIBILITY.

* - THESE STATIONS ARE NOT NWS STATIONS...THUS NOT UNDER NWS
QUALITY CONTROL.  THEY ALSO DO NOT REPORT WEATHER SUCH
AS PRECIPITATION OR FOG.

IAZ001>003-012>014-020>022-031>034-043>046-300700-
   NORTHWEST IOWA

CITY           SKY/WX    TMP DP  RH WIND       PRES   REMARKS
CARROLL *      CLOUDY    54  52  94 N17       30.05R
CHEROKEE *     CLOUDY    50  49  93 N13G18    30.09R
DENISON *      CLOUDY    52  52 100 N10       30.07R
LE MARS *      CLOUDY    50  46  87 N13G20    30.13R
ORANGE CITY *  CLOUDY    48  43  81 N10G16    30.11R
SHELDON *      CLOUDY    50  46  87 N14G21    30.10R
SIOUX CITY     CLOUDY    52  44  74 N14       30.13R
6HR MIN TEMP:  52; 6HR MAX TEMP:  60; 6HR PCP: TRACE;

SPENCER        CLOUDY    52  47  83 N18G26    30.08R
6HR MIN TEMP:  52; 6HR MAX TEMP:  56;

STORM LAKE *   CLOUDY    50  48  93 N18       30.08R
$$

IAZ055>058-069>071-079>083-090>094-300700-
   SOUTHWEST IOWA

CITY           SKY/WX    TMP DP  RH WIND       PRES   REMARKS
ATLANTIC *     CLOUDY    55  54  94 N21       30.05R
AUDUBON *      CLOUDY    54  50  87 NW10      30.07R
CLARINDA *     CLOUDY    59  59 100 N17       30.03R
COUNCIL BLFS * CLOUDY    54  54 100 N14G21    30.07S
CRESTON *      LGT RAIN  59  59 100 N17G23    30.00S
HARLAN  *      CLOUDY    54  54 100 N16G24    30.10R
LAMONI         CLOUDY    66  63  90 VRB5      29.98S
6HR MIN TEMP:  66; 6HR MAX TEMP:  73;

RED OAK *      CLOUDY    57  55  94 N16       30.05R
SHENANDOAH *   CLOUDY    59  55  88 N10G21    30.05R
$$

IAZ047>049-059>061-072>074-084-300700-
   CENTRAL IOWA

CITY           SKY/WX    TMP DP  RH WIND       PRES   REMARKS
AMES           CLOUDY    59  55  87 NW15      29.99S
6HR MIN TEMP:  59; 6HR MAX TEMP:  75; 6HR PCP: TRACE;

ANKENY *       LGT RAIN  61  59  94 N12       29.99R
CHARITON *     CLOUDY    64  64 100 SW6       29.97S
DES MOINES     RAIN      61  59  93 NW14      29.98R FOG
6HR MIN TEMP:  61; 6HR MAX TEMP:  75; 6HR PCP:  0.18;

GRINNELL*      CLOUDY    66  63  88 SW8       29.97S
KNOXVILLE *    CLOUDY    66  63  88 CALM      29.96R
MARSHALLTOWN   CLOUDY    63  61  93 W9        29.95S
6HR MIN TEMP:  63; 6HR MAX TEMP:  73; 6HR PCP:  0.16;

PELLA *        CLOUDY    66  66  99 SW5       29.97S
PERRY *        CLOUDY    58  55  90 NW13G20   30.02S
$$

IAZ004>006-015-016-023>025-035-036-300700-
   NORTH CENTRAL IOWA

CITY           SKY/WX    TMP DP  RH WIND       PRES   REMARKS
ALGONA *       MOCLDY    54  54 100 N20G30    30.05R FOG
CLARION *      CLOUDY    55  54  94 N16G25    30.01R
ESTHERVILLE    CLOUDY    51  49  92 N24       30.07R
6HR MIN TEMP:  51; 6HR MAX TEMP:  56; 6HR PCP:  0.01;

FORT DODGE *   CLOUDY    55  48  76 N13G22    30.03R
MASON CITY     CLOUDY    57  55  93 N18       30.00R
6HR MIN TEMP:  57; 6HR MAX TEMP:  69; 6HR PCP:  0.13;

FOREST CITY *  CLOUDY    54  54 100 N16G25    30.01R
IOWA FALLS *   CLOUDY    61  57  88 NW18      29.99R
$$

IAZ007>011-017>019-026>030-037>042-050>054-066-300700-
   NORTHEAST IOWA

CITY           SKY/WX    TMP DP  RH WIND       PRES   REMARKS
CEDAR RAPIDS   CLOUDY    65  64  97 SW7       29.93S
6HR MIN TEMP:  65; 6HR MAX TEMP:  73; 6HR PCP:  0.30;

CHARLES CITY * CLOUDY    61  61 100 N21G31    29.96R
CLINTON *      CLOUDY    66  61  82 SW7       29.96F
DECORAH *      CLOUDY    64  64 100 NW6       29.92R
DUBUQUE        CLOUDY    65  63  93 SW14      29.93S
6HR MIN TEMP:  65; 6HR MAX TEMP:  74; 6HR PCP: TRACE;

MONTICELLO *   CLOUDY    66  66 100 SW9       29.93F
OELWEIN *      CLOUDY    64  63  94 SW12      29.94R
WATERLOO       CLOUDY    65  64  97 W5        29.93R
6HR MIN TEMP:  65; 6HR MAX TEMP:  74; 6HR PCP:  0.09;

$$

IAZ064-065-067-068-078-300700-
   EAST CENTRAL IOWA

CITY           SKY/WX    TMP DP  RH WIND       PRES   REMARKS
DAVENPORT      CLOUDY    68  62  81 S8        29.95F
6HR MIN TEMP:  68; 6HR MAX TEMP:  77; 6HR PCP: TRACE;

IOWA CITY      CLOUDY    68  63  84 S6        29.95F
6HR MIN TEMP:  68; 6HR MAX TEMP:  73;

MT. PLEASANT * CLOUDY    67  66  99 S8        29.97S
MUSCATINE *    CLOUDY    68  64  88 S7G13     29.95S
QUAD CITIES    CLOUDY    67  64  90 SW5       29.95F
6HR MIN TEMP:  67; 6HR MAX TEMP:  76; 6HR PCP:  0.02;

$$

IAZ062-063-075>077-085>089-095>099-300700-
   SOUTHEAST IOWA

CITY           SKY/WX    TMP DP  RH WIND       PRES   REMARKS
BURLINGTON     CLOUDY    68  66  93 S9        29.97S
6HR MIN TEMP:  68; 6HR MAX TEMP:  75; 6HR PCP:  0.02;

FAIRFIELD *    CLOUDY    68  63  83 SW7       29.96S
FORT MADISON * CLOUDY    66  64  94 S8        29.99R
KEOKUK *       LGT RAIN  66  64  94 S8        29.98R
OSKALOOSA *    MOCLDY    64  62  93 SW9       29.97S
CENTERVILLE *  MOCLDY    64  64 100 SW6       29.99S
OTTUMWA        MOCLDY    65  63  93 SW8       29.96S
6HR MIN TEMP:  65; 6HR MAX TEMP:  70;

WASHINGTON *   PTCLDY    68  63  83 SW6       29.97S
$$

ABBREVIATIONS USED IN REMARKS
   TC - TEMPERATURES IN CELSIUS
  WCI - WIND CHILL INDEX
   HX - HEAT INDEX
  VSB - VISIBILITY
$$




USA.gov is the U.S. government's official web portal to all federal, state and local government web resources and services.